Theta_e
307 307 308 309 309 309 309 310 310 310 310 310 310 310 310 311 315 322 323 323 324 319 318 322 322 327 329 336 334 335 343 347 342 341 347 345 347 341 339 342 340 340 340 339 338
307 307 308 309 309 309 309 310 310 310 310 310 310 311 311 313 319 323 326 320 320 317 317 323 326 326 330 335 335 341 340 343 339 335 346 345 344 343 341 341 341 340 336 336 338
307 308 308 309 310 309 311 311 311 311 311 311 311 311 312 314 330 326 326 321 321 320 321 325 326 323 326 336 339 339 340 337 339 341 345 345 344 341 341 343 338 337 331 326 325
307 308 308 310 311 310 312 312 311 311 311 311 311 311 312 321 330 322 321 321 321 320 323 325 324 329 338 344 339 344 339 339 341 342 344 346 342 340 340 338 335 332 329 324 324
307 308 309 311 311 311 311 311 311 311 311 311 311 311 316 331 327 323 321 321 321 321 323 323 327 330 337 340 339 340 340 339 341 342 342 340 341 340 339 335 332 329 326 323 323
308 308 310 311 312 311 311 311 312 312 311 311 311 312 328 329 323 320 320 321 322 324 325 325 329 334 338 340 339 335 334 340 342 342 341 340 339 339 337 334 333 329 324 322 323
308 309 310 311 312 312 312 312 313 313 313 313 313 315 327 327 324 322 325 326 328 327 326 331 332 335 337 342 339 340 335 339 334 338 344 341 345 342 336 334 333 330 324 322 324
309 310 310 311 312 312 313 313 314 314 313 313 314 318 328 326 325 326 326 326 326 327 331 335 333 334 338 335 339 340 342 341 332 335 342 344 352 341 337 336 335 332 328 325 327
309 310 311 312 313 313 313 314 314 315 316 315 322 324 329 325 326 324 325 325 326 328 331 330 333 337 334 337 342 339 338 343 340 333 335 340 348 343 339 338 336 333 330 328 329
310 311 312 313 313 314 314 315 316 318 324 324 326 328 328 324 326 326 326 326 325 325 325 327 325 326 335 336 338 343 342 340 339 338 336 336 337 340 335 340 337 333 330 330 330
310 311 312 313 314 314 315 319 328 331 326 328 324 324 327 327 324 324 325 325 324 323 323 323 323 323 324 335 336 339 339 340 339 334 334 336 335 340 342 340 336 332 330 330 330
311 312 313 314 314 314 313 322 329 326 326 329 329 328 327 323 323 325 325 324 323 322 322 326 329 333 332 334 333 334 337 340 340 336 333 346 345 339 340 340 334 333 332 330 328
312 313 313 314 314 315 316 325 328 326 326 328 328 326 325 325 323 322 322 322 322 321 328 332 333 334 336 335 335 334 335 337 337 337 334 342 334 343 338 335 333 328 326 329 329
313 314 313 314 318 320 324 328 327 327 326 329 326 325 325 324 324 324 324 322 322 333 332 332 334 334 336 338 339 340 335 335 333 332 342 337 343 335 339 337 334 329 327 327 329
315 314 313 314 314 318 325 324 327 329 334 326 326 326 325 325 326 326 326 323 325 333 334 334 332 333 335 336 333 336 334 331 332 331 340 343 337 334 332 338 334 331 328 328 328
315 314 312 315 320 324 324 324 326 329 338 327 326 326 325 326 327 327 327 326 331 332 333 334 333 334 335 333 332 332 335 331 327 335 343 338 338 337 337 331 334 332 329 327 326
314 312 311 314 323 323 322 325 330 332 335 329 326 325 325 328 329 329 330 335 334 336 334 336 337 336 333 333 333 333 326 327 328 335 344 336 334 335 335 334 334 332 330 326 324
312 311 311 313 318 321 319 329 342 337 338 337 328 325 328 331 331 333 335 336 334 333 333 333 336 338 334 334 336 327 326 328 333 333 339 332 338 334 331 331 329 328 327 325 325
311 311 312 318 321 322 326 340 342 339 337 334 328 331 334 332 332 338 338 337 335 332 336 335 337 333 334 332 329 327 332 326 329 333 335 335 336 330 331 332 331 329 327 327 323
312 328 323 323 323 326 331 339 340 338 337 337 338 337 338 334 334 338 342 335 335 332 331 336 336 331 331 331 330 331 331 331 331 334 340 339 334 334 332 332 332 331 330 327 324
318 334 322 322 324 329 335 337 337 336 335 336 336 337 338 335 333 340 339 331 331 329 330 330 329 333 331 332 331 330 331 333 331 334 338 338 334 327 324 322 322 327 327 325 321
326 336 327 326 328 333 337 337 331 332 332 334 333 333 334 332 332 337 335 332 328 326 328 330 331 336 334 331 329 327 327 332 335 337 332 334 333 325 318 319 317 318 319 318 316
338 336 326 324 334 337 335 336 336 333 333 333 333 332 331 333 332 337 335 329 327 330 332 330 333 337 337 333 331 329 327 327 332 327 330 333 330 323 320 318 318 318 319 319 318
335 341 329 328 331 334 335 337 336 332 332 331 330 330 330 331 331 337 335 333 331 332 339 338 333 333 336 333 329 329 328 324 327 330 329 331 327 319 319 319 318 318 317 317 318
337 340 329 327 334 335 334 335 333 333 332 332 330 329 334 335 337 335 335 333 333 331 337 335 333 329 327 326 326 326 326 322 320 320 323 321 320 320 319 318 319 317 316 316 318
339 337 336 334 335 336 334 335 335 332 333 332 332 331 331 332 333 338 338 339 339 339 335 337 337 332 331 327 326 327 325 321 321 321 321 321 322 319 320 320 321 319 318 317 317
342 339 335 338 336 337 338 335 335 333 331 330 332 332 330 330 331 331 332 333 334 338 340 336 339 337 338 334 333 327 324 324 326 326 325 325 323 321 321 323 320 319 319 318 317
Wind_Speed
14 13 13 13 10 10 10 10 12 12 13 14 16 18 20 22 22 8 5 6 6 2 4 6 11 15 16 1 4 5 5 2 4 3 4 8 6 9 11 10 7 4 6 7 6
15 14 14 12 11 11 10 12 13 13 13 14 17 18 18 21 15 9 10 5 2 2 3 8 7 10 2 5 3 4 5 10 12 17 11 12 9 11 7 13 9 11 10 7 6
15 14 13 12 11 10 10 12 13 14 14 14 16 17 17 17 4 5 11 6 3 1 4 14 21 9 2 13 11 9 5 7 12 8 17 15 16 6 15 7 8 9 9 7 15
15 14 13 11 11 10 11 13 14 14 13 14 16 16 20 2 4 7 11 6 4 3 4 11 7 7 20 10 9 11 9 10 10 14 16 9 7 8 9 8 10 11 11 8 13
14 14 12 10 12 11 11 13 14 14 13 14 15 17 6 1 8 9 9 7 5 5 6 7 1 7 10 13 5 3 5 9 10 15 18 19 16 11 14 14 14 13 12 8 7
14 13 12 10 12 12 12 14 14 13 13 13 14 15 2 4 5 8 8 7 8 9 9 13 3 12 9 9 6 3 2 4 15 14 8 15 10 5 11 13 13 11 10 8 8
14 13 12 11 12 13 12 14 14 13 13 12 13 10 4 10 3 7 6 6 8 13 10 7 13 16 3 5 7 7 2 5 18 10 9 6 5 7 9 14 16 14 13 11 14
14 13 12 11 12 13 13 14 14 15 14 13 11 3 7 5 10 6 10 14 17 18 8 9 40 17 12 2 4 1 3 4 3 2 6 10 4 16 12 12 13 16 15 14 15
14 13 12 11 12 12 14 15 16 16 14 12 6 4 7 7 7 12 14 13 13 6 4 6 13 6 5 8 3 2 3 1 4 5 3 4 7 15 10 15 14 11 13 12 14
14 13 12 11 12 14 17 18 15 14 7 7 8 4 7 7 12 13 13 7 7 5 4 6 5 4 7 6 4 5 3 3 6 6 7 5 10 8 5 14 14 12 9 15 13
14 13 12 11 12 15 17 7 3 2 4 8 7 5 7 19 15 14 5 4 10 7 6 10 1 7 11 9 7 11 5 9 8 6 5 8 18 11 19 12 12 16 11 12 10
13 13 11 12 13 16 14 3 9 8 6 16 18 20 27 20 7 7 8 3 6 9 8 7 5 19 16 15 12 10 5 8 6 11 5 7 17 7 6 6 10 11 10 8 7
13 13 11 13 15 18 11 15 15 12 2 12 18 10 7 5 9 10 9 9 9 8 5 5 5 14 15 15 20 17 5 5 8 14 13 13 7 5 4 13 18 17 13 5 5
13 12 12 12 11 9 11 15 8 10 2 5 6 7 7 9 8 13 22 11 5 1 3 4 4 7 11 8 7 7 13 15 13 3 3 4 2 8 6 11 13 11 10 11 12
13 11 10 10 14 7 15 18 11 2 2 8 8 17 8 9 6 6 13 6 6 3 3 4 8 4 5 3 10 5 9 10 15 7 7 9 7 7 7 6 9 10 10 11 7
12 10 10 8 11 17 30 27 12 2 6 8 7 7 8 10 9 8 7 7 6 2 5 3 0 4 4 5 10 7 5 12 5 5 7 10 6 3 3 4 6 5 10 7 4
11 10 12 10 5 19 26 10 2 3 6 5 9 9 10 4 4 3 4 10 4 6 5 3 1 3 3 6 7 3 5 4 6 5 4 4 9 3 9 3 10 10 6 5 10
10 10 13 18 15 17 19 4 2 8 12 16 8 9 9 7 3 11 11 5 9 9 5 5 7 4 3 6 4 6 6 3 2 3 3 9 3 3 5 11 7 10 6 8 8
8 8 7 16 12 14 2 2 6 6 7 9 5 7 7 9 6 8 8 8 7 7 3 4 6 9 6 4 10 6 7 5 3 7 5 1 3 4 6 9 3 6 7 2 7
5 4 8 16 13 7 2 4 3 8 13 9 9 13 6 6 5 4 7 11 6 14 7 5 4 10 16 15 13 10 9 7 5 4 5 4 5 5 1 6 6 7 7 8 6
4 2 6 16 13 3 1 6 6 16 2 5 6 9 5 7 8 5 6 13 12 9 8 6 4 6 14 9 14 9 9 6 6 3 3 4 2 5 5 8 8 5 5 7 6
3 2 7 6 3 1 3 5 6 4 10 5 9 8 6 6 4 6 9 6 6 7 4 3 1 5 13 13 15 11 8 6 4 2 3 4 2 5 7 7 8 7 6 5 9
1 3 8 9 2 3 3 7 15 15 11 7 7 7 7 4 5 10 7 8 9 6 4 5 4 4 3 5 12 10 9 5 4 3 3 4 3 2 6 7 6 5 3 5 6
2 3 1 3 3 5 5 8 8 9 8 6 9 12 8 7 4 8 9 6 8 5 6 7 8 10 5 5 5 5 9 10 7 4 8 6 3 7 6 6 7 7 6 6 6
1 4 5 3 3 2 3 16 7 3 7 9 10 11 8 7 8 9 12 8 8 2 6 7 8 12 8 9 7 5 6 13 12 9 9 6 7 4 4 4 4 5 7 8 6
2 2 5 3 6 1 6 6 7 15 10 8 9 10 9 8 7 7 6 6 5 7 6 3 3 6 6 8 12 11 13 13 12 11 8 8 8 8 10 8 10 7 7 7 6
6 7 3 3 4 8 4 6 11 10 13 12 10 9 9 8 9 7 8 7 6 5 4 3 4 3 2 4 5 7 10 9 15 17 11 7 4 9 11 7 7 6 5 5 5
Wind_Direction
335 337 332 325 331 323 317 333 328 324 320 319 315 318 322 328 326 313 250 249 217 250 239 280 235 237 238 92 48 79 83 134 251 240 179 99 99 61 59 83 64 53 81 133 133
336 335 327 325 330 325 332 336 327 318 316 318 317 319 326 334 332 273 254 210 240 199 254 278 305 261 149 159 38 63 118 163 202 220 132 115 110 121 92 91 80 86 79 96 94
334 328 322 328 329 321 341 334 321 314 313 319 315 325 329 335 324 247 193 182 168 254 282 309 302 315 44 63 358 335 11 212 250 159 129 121 96 97 126 94 126 123 117 80 98
331 326 322 329 329 329 340 323 310 308 314 317 323 324 326 1 2 158 157 162 200 251 320 296 328 59 76 73 24 357 337 8 96 105 102 77 83 64 46 100 127 124 124 108 98
331 327 322 334 329 331 323 312 307 309 315 320 323 325 342 252 249 169 169 182 212 227 237 267 59 105 93 124 93 323 316 340 62 89 78 79 73 97 99 118 126 136 104 95 104
333 325 322 332 324 320 316 309 308 309 313 321 318 332 341 283 167 170 174 189 219 217 249 252 26 86 73 65 95 287 306 15 48 29 84 104 139 92 136 134 133 125 122 129 135
330 322 324 330 323 314 313 307 306 308 308 314 317 338 275 243 204 167 168 225 238 233 248 267 171 89 319 124 212 341 103 22 24 346 92 120 131 92 159 152 156 148 150 160 176
327 323 321 323 318 315 309 304 305 301 301 304 308 317 257 176 189 195 220 254 255 258 303 152 104 121 135 139 48 208 40 112 260 62 133 103 221 147 170 185 160 163 173 173 165
328 322 318 321 314 311 307 305 301 298 297 292 314 191 281 189 219 217 228 245 238 305 328 322 161 127 60 120 131 322 104 183 293 282 175 192 147 158 152 204 171 168 165 154 137
330 319 316 318 312 313 310 307 297 292 284 280 259 307 252 220 219 246 243 311 322 278 307 246 251 234 146 181 215 160 179 170 214 232 238 289 273 101 316 225 166 170 155 143 139
326 314 309 311 310 312 319 334 334 300 244 223 202 237 283 205 205 242 235 288 303 316 255 266 260 270 263 209 84 125 141 164 235 198 83 244 263 96 209 206 167 173 152 151 149
322 311 309 304 307 304 310 255 258 306 306 226 252 270 246 170 202 204 216 243 254 256 275 17 23 347 8 50 57 42 148 200 228 143 129 102 97 159 221 176 179 133 54 74 126
319 310 301 298 307 298 250 242 293 302 281 285 224 230 248 188 206 219 166 239 242 287 347 111 262 323 35 28 24 2 332 270 229 160 189 109 50 19 32 52 81 83 92 279 274
317 307 294 304 309 319 270 270 286 13 332 251 195 191 185 226 258 194 188 203 263 61 68 144 258 327 37 49 56 260 272 283 320 241 113 321 94 28 61 64 102 131 147 214 237
314 302 289 290 304 298 291 330 349 33 323 172 225 160 196 198 149 182 188 227 227 191 102 19 46 9 51 301 340 264 328 295 302 342 118 1 72 325 18 109 148 187 223 229 250
311 293 277 291 287 289 327 314 318 22 246 176 146 183 235 235 209 149 191 201 116 207 89 126 272 33 331 309 279 344 288 286 5 98 55 9 92 290 313 199 215 214 229 238 303
306 284 267 254 247 337 334 335 3 213 322 174 173 200 221 212 195 136 110 45 74 17 13 169 333 110 42 352 323 317 5 358 12 25 91 162 59 312 327 323 214 202 207 161 122
305 283 274 262 274 302 315 356 341 313 308 293 246 215 177 178 169 56 59 33 28 44 333 348 343 150 166 216 241 343 83 99 4 53 137 11 112 226 295 319 84 133 110 125 133
312 300 275 258 256 271 13 11 194 254 274 279 38 41 25 45 74 74 9 48 35 56 36 344 351 26 197 66 40 6 16 333 89 102 80 2 228 295 277 292 127 131 105 198 177
320 309 257 233 241 241 18 252 231 261 299 47 55 27 3 26 55 58 2 27 13 24 4 352 25 24 36 34 27 63 352 24 12 50 102 66 14 333 227 226 202 192 201 179 189
340 336 254 219 228 69 240 217 292 275 191 70 48 103 318 31 20 125 99 45 33 352 43 19 67 55 60 58 48 16 14 31 102 92 120 142 250 273 1 46 61 113 118 149 193
338 285 182 176 67 229 212 259 303 150 63 88 53 60 73 38 334 91 80 67 63 6 23 12 54 81 87 71 61 49 34 14 100 291 107 115 221 358 63 66 66 55 111 133 112
286 249 156 133 120 291 277 323 298 65 54 41 37 51 18 100 46 116 96 67 64 40 20 321 340 121 160 38 40 29 6 13 83 74 47 102 245 280 66 64 83 77 324 161 132
332 307 37 79 152 85 296 279 272 55 59 61 55 38 17 359 123 128 132 88 79 44 4 87 60 82 106 86 36 34 19 32 63 61 45 93 124 43 41 37 44 22 8 140 152
200 261 191 181 96 95 63 289 122 136 79 49 48 47 21 17 32 43 114 146 122 100 58 91 93 87 77 112 119 82 67 58 43 21 83 81 72 64 61 57 95 62 34 26 34
268 5 345 62 118 318 239 309 349 61 78 45 83 76 51 53 68 50 54 34 45 26 86 46 91 86 53 82 78 37 22 74 64 34 46 54 40 18 11 14 54 36 43 26 9
340 339 111 264 143 134 252 176 236 109 45 40 62 85 64 69 82 95 93 83 78 54 52 80 132 67 106 338 346 30 8 28 64 42 45 42 334 19 14 28 39 5 29 26 355